QPF
0.00 0.00 0.00 0.00 0.00 0.00 0.00 0.00 0.00 0.00 0.00 0.00 0.00 0.00 0.00 0.00 0.00 0.00 0.00 0.00 0.00 0.00 0.00 0.00 0.00 0.00 0.00 0.00 0.00 0.00 0.00 0.00 0.00 0.00 0.00 0.00 0.00 0.00 0.00 0.00 0.00 0.00 0.00 0.00 0.00 0.00 0.00 0.00 0.00
0.00 0.00 0.00 0.00 0.00 0.00 0.00 0.00 0.00 0.00 0.00 0.00 0.00 0.00 0.00 0.00 0.00 0.00 0.00 0.00 0.00 0.00 0.00 0.00 0.00 0.00 0.00 0.00 0.00 0.00 0.00 0.00 0.00 0.00 0.00 0.00 0.00 0.00 0.00 0.00 0.00 0.00 0.00 0.00 0.00 0.00 0.00 0.00 0.00
0.00 0.00 0.00 0.00 0.00 0.00 0.00 0.00 0.00 0.00 0.00 0.00 0.00 0.00 0.00 0.00 0.00 0.00 0.00 0.00 0.00 0.00 0.00 0.00 0.00 0.00 0.00 0.00 0.00 0.00 0.00 0.00 0.00 0.00 0.00 0.00 0.00 0.00 0.00 0.00 0.00 0.00 0.00 0.00 0.00 0.00 0.00 0.00 0.00
0.00 0.00 0.00 0.00 0.00 0.00 0.00 0.00 0.00 0.00 0.00 0.00 0.00 0.00 0.00 0.00 0.00 0.00 0.00 0.00 0.00 0.00 0.00 0.00 0.00 0.00 0.00 0.00 0.00 0.00 0.00 0.00 0.00 0.00 0.00 0.00 0.00 0.00 0.00 0.00 0.00 0.00 0.00 0.00 0.00 0.00 0.00 0.00 0.00
0.00 0.00 0.00 0.00 0.00 0.00 0.00 0.00 0.00 0.00 0.00 0.00 0.00 0.00 0.00 0.00 0.00 0.00 0.00 0.00 0.00 0.00 0.00 0.00 0.00 0.00 0.00 0.00 0.00 0.00 0.00 0.00 0.00 0.00 0.00 0.00 0.00 0.00 0.00 0.00 0.00 0.00 0.00 0.00 0.00 0.00 0.00 0.00 0.00
0.00 0.00 0.00 0.00 0.00 0.00 0.00 0.00 0.00 0.00 0.00 0.00 0.00 0.00 0.00 0.00 0.00 0.00 0.00 0.00 0.00 0.00 0.00 0.00 0.00 0.00 0.00 0.00 0.00 0.00 0.00 0.00 0.00 0.00 0.00 0.00 0.00 0.00 0.00 0.00 0.00 0.00 0.00 0.00 0.00 0.00 0.00 0.00 0.00
0.00 0.00 0.00 0.00 0.00 0.00 0.00 0.00 0.00 0.00 0.00 0.00 0.01 0.00 0.00 0.00 0.00 0.00 0.00 0.00 0.00 0.00 0.00 0.00 0.00 0.00 0.00 0.00 0.00 0.00 0.00 0.00 0.00 0.00 0.00 0.00 0.00 0.00 0.00 0.00 0.00 0.00 0.00 0.00 0.00 0.00 0.00 0.00 0.00
0.00 0.00 0.00 0.00 0.00 0.00 0.00 0.00 0.00 0.00 0.00 0.00 0.02 0.00 0.00 0.00 0.00 0.00 0.00 0.00 0.00 0.00 0.00 0.00 0.00 0.00 0.00 0.00 0.00 0.00 0.00 0.00 0.00 0.00 0.00 0.00 0.00 0.00 0.00 0.00 0.00 0.00 0.00 0.00 0.00 0.00 0.00 0.00 0.00
0.00 0.00 0.00 0.00 0.00 0.00 0.00 0.00 0.00 0.00 0.00 0.00 0.00 0.00 0.00 0.00 0.00 0.00 0.00 0.00 0.00 0.00 0.00 0.00 0.00 0.00 0.00 0.00 0.00 0.00 0.00 0.00 0.00 0.00 0.00 0.00 0.00 0.00 0.00 0.00 0.00 0.00 0.00 0.00 0.00 0.00 0.00 0.00 0.00
0.00 0.00 0.00 0.00 0.00 0.00 0.00 0.00 0.00 0.00 0.00 0.00 0.00 0.00 0.01 0.00 0.00 0.00 0.00 0.00 0.00 0.00 0.00 0.00 0.00 0.00 0.00 0.00 0.00 0.00 0.00 0.00 0.00 0.00 0.00 0.00 0.00 0.00 0.00 0.00 0.00 0.00 0.00 0.00 0.00 0.00 0.00 0.00 0.00
0.00 0.00 0.00 0.00 0.00 0.00 0.00 0.00 0.00 0.00 0.00 0.00 0.00 0.00 0.00 0.00 0.00 0.00 0.00 0.00 0.00 0.00 0.00 0.00 0.00 0.00 0.00 0.00 0.00 0.00 0.00 0.00 0.00 0.00 0.00 0.00 0.00 0.00 0.00 0.00 0.00 0.00 0.00 0.00 0.00 0.00 0.00 0.00 0.00
0.00 0.00 0.00 0.00 0.00 0.00 0.00 0.00 0.00 0.00 0.00 0.00 0.00 0.00 0.00 0.00 0.00 0.00 0.00 0.00 0.00 0.00 0.00 0.00 0.00 0.00 0.00 0.00 0.00 0.00 0.00 0.00 0.00 0.00 0.00 0.00 0.00 0.00 0.00 0.00 0.00 0.00 0.00 0.00 0.00 0.00 0.00 0.00 0.00
0.00 0.00 0.00 0.00 0.00 0.00 0.00 0.00 0.00 0.00 0.00 0.00 0.00 0.00 0.00 0.00 0.00 0.00 0.00 0.00 0.00 0.00 0.00 0.00 0.00 0.00 0.00 0.00 0.00 0.00 0.00 0.00 0.00 0.00 0.00 0.00 0.00 0.00 0.00 0.00 0.00 0.00 0.00 0.00 0.00 0.00 0.00 0.00 0.00
0.00 0.00 0.00 0.00 0.00 0.00 0.00 0.00 0.00 0.00 0.00 0.00 0.00 0.00 0.00 0.00 0.00 0.00 0.00 0.00 0.00 0.00 0.00 0.00 0.00 0.00 0.00 0.00 0.00 0.00 0.00 0.00 0.00 0.00 0.00 0.00 0.00 0.00 0.00 0.01 0.00 0.00 0.00 0.00 0.00 0.00 0.00 0.00 0.00
0.00 0.00 0.00 0.00 0.00 0.00 0.00 0.00 0.00 0.00 0.00 0.00 0.00 0.00 0.00 0.00 0.00 0.00 0.00 0.00 0.00 0.00 0.00 0.00 0.00 0.00 0.00 0.00 0.00 0.00 0.00 0.00 0.00 0.00 0.00 0.00 0.00 0.00 0.00 0.06 0.05 0.00 0.00 0.00 0.00 0.00 0.00 0.00 0.00
0.00 0.00 0.00 0.00 0.00 0.00 0.00 0.00 0.00 0.00 0.00 0.00 0.00 0.00 0.00 0.00 0.00 0.00 0.00 0.00 0.00 0.00 0.00 0.00 0.00 0.00 0.00 0.01 0.00 0.00 0.00 0.00 0.00 0.00 0.00 0.00 0.00 0.00 0.01 0.07 0.08 0.02 0.01 0.00 0.00 0.00 0.00 0.00 0.00
0.00 0.00 0.00 0.00 0.00 0.00 0.00 0.00 0.00 0.00 0.00 0.00 0.00 0.00 0.00 0.00 0.00 0.00 0.00 0.00 0.00 0.00 0.00 0.00 0.00 0.00 0.00 0.01 0.01 0.00 0.00 0.00 0.00 0.01 0.00 0.00 0.00 0.00 0.08 0.03 0.06 0.05 0.04 0.02 0.03 0.03 0.03 0.01 0.00
0.00 0.00 0.00 0.00 0.00 0.00 0.00 0.00 0.00 0.00 0.00 0.00 0.00 0.00 0.00 0.00 0.00 0.00 0.00 0.00 0.00 0.00 0.00 0.00 0.00 0.00 0.00 0.00 0.00 0.00 0.00 0.00 0.02 0.05 0.05 0.06 0.04 0.01 0.04 0.02 0.01 0.05 0.01 0.00 0.01 0.02 0.03 0.01 0.00
0.00 0.00 0.00 0.00 0.00 0.00 0.00 0.00 0.00 0.00 0.00 0.00 0.00 0.00 0.00 0.00 0.00 0.00 0.00 0.00 0.00 0.00 0.00 0.00 0.00 0.00 0.00 0.00 0.00 0.00 0.00 0.00 0.00 0.00 0.00 0.00 0.00 0.00 0.00 0.00 0.00 0.03 0.02 0.00 0.00 0.01 0.01 0.00 0.02
0.00 0.00 0.00 0.00 0.00 0.00 0.00 0.00 0.00 0.00 0.00 0.00 0.00 0.00 0.00 0.00 0.00 0.00 0.00 0.00 0.00 0.00 0.00 0.00 0.00 0.00 0.00 0.00 0.00 0.00 0.00 0.00 0.00 0.00 0.00 0.00 0.00 0.00 0.00 0.00 0.00 0.00 0.00 0.00 0.00 0.00 0.01 0.00 0.03
0.00 0.00 0.00 0.00 0.00 0.00 0.00 0.00 0.00 0.00 0.00 0.00 0.00 0.00 0.00 0.00 0.00 0.00 0.00 0.00 0.00 0.00 0.00 0.00 0.00 0.00 0.00 0.00 0.00 0.00 0.00 0.00 0.00 0.00 0.00 0.00 0.00 0.00 0.00 0.00 0.00 0.00 0.00 0.00 0.00 0.00 0.01 0.01 0.03
0.00 0.00 0.00 0.00 0.00 0.00 0.00 0.00 0.00 0.00 0.00 0.00 0.00 0.00 0.00 0.00 0.00 0.00 0.00 0.00 0.00 0.00 0.00 0.00 0.00 0.00 0.00 0.00 0.00 0.00 0.00 0.00 0.00 0.00 0.00 0.00 0.00 0.00 0.00 0.00 0.00 0.00 0.00 0.00 0.00 0.00 0.00 0.03 0.01
0.00 0.00 0.00 0.00 0.00 0.00 0.00 0.00 0.00 0.00 0.00 0.00 0.00 0.00 0.00 0.00 0.00 0.00 0.00 0.00 0.00 0.00 0.00 0.00 0.00 0.00 0.00 0.00 0.00 0.00 0.00 0.00 0.00 0.00 0.00 0.00 0.00 0.00 0.00 0.00 0.00 0.00 0.00 0.00 0.00 0.00 0.01 0.01 0.01
0.00 0.00 0.00 0.00 0.00 0.00 0.00 0.00 0.00 0.00 0.00 0.00 0.00 0.00 0.00 0.00 0.00 0.00 0.00 0.00 0.00 0.00 0.00 0.00 0.00 0.00 0.00 0.00 0.00 0.00 0.00 0.00 0.00 0.00 0.00 0.00 0.00 0.00 0.00 0.00 0.00 0.00 0.00 0.00 0.00 0.01 0.02 0.02 0.02
0.00 0.00 0.00 0.00 0.00 0.00 0.00 0.00 0.00 0.00 0.00 0.00 0.00 0.00 0.00 0.00 0.00 0.00 0.00 0.00 0.00 0.00 0.00 0.00 0.00 0.00 0.00 0.00 0.00 0.00 0.00 0.00 0.00 0.00 0.00 0.00 0.00 0.00 0.00 0.00 0.00 0.00 0.00 0.00 0.00 0.00 0.01 0.02 0.02
0.00 0.00 0.00 0.00 0.00 0.00 0.00 0.00 0.00 0.00 0.00 0.00 0.00 0.00 0.00 0.00 0.00 0.00 0.00 0.00 0.00 0.00 0.00 0.00 0.00 0.00 0.00 0.00 0.00 0.00 0.00 0.00 0.00 0.00 0.00 0.00 0.00 0.00 0.00 0.00 0.00 0.00 0.00 0.00 0.00 0.00 0.00 0.01 0.02
0.00 0.00 0.00 0.00 0.00 0.00 0.00 0.00 0.00 0.00 0.00 0.00 0.00 0.00 0.00 0.00 0.00 0.00 0.00 0.00 0.00 0.00 0.00 0.00 0.00 0.00 0.00 0.00 0.00 0.00 0.00 0.00 0.00 0.00 0.00 0.00 0.00 0.00 0.00 0.00 0.00 0.00 0.00 0.00 0.00 0.00 0.00 0.01 0.02
0.00 0.00 0.00 0.00 0.00 0.00 0.00 0.00 0.00 0.00 0.00 0.00 0.00 0.00 0.00 0.00 0.00 0.00 0.00 0.00 0.00 0.00 0.00 0.00 0.00 0.00 0.00 0.00 0.00 0.00 0.00 0.00 0.00 0.00 0.00 0.00 0.00 0.00 0.00 0.00 0.00 0.00 0.00 0.00 0.00 0.00 0.00 0.00 0.00
0.00 0.00 0.00 0.00 0.00 0.00 0.00 0.00 0.00 0.00 0.00 0.00 0.00 0.00 0.00 0.00 0.00 0.00 0.00 0.00 0.00 0.00 0.00 0.00 0.00 0.00 0.00 0.00 0.00 0.00 0.00 0.00 0.00 0.00 0.00 0.00 0.00 0.00 0.00 0.00 0.00 0.00 0.00 0.00 0.00 0.00 0.00 0.00 0.00
0.00 0.00 0.00 0.00 0.00 0.00 0.00 0.00 0.00 0.00 0.00 0.00 0.00 0.00 0.00 0.00 0.00 0.00 0.00 0.00 0.00 0.00 0.00 0.00 0.00 0.00 0.00 0.00 0.00 0.00 0.00 0.00 0.00 0.00 0.00 0.00 0.00 0.00 0.00 0.00 0.00 0.00 0.00 0.00 0.00 0.00 0.00 0.00 0.00
MSLP
1011.34 1011.26 1011.22 1011.54 1013.01 1013.42 1012.68 1011.24 1009.86 1008.74 1007.62 1006.40 1006.06 1005.79 1005.83 1005.61 1006.03 1006.91 1006.42 1006.73 1006.78 1007.56 1008.05 1008.72 1009.10 1009.34 1009.71 1009.93 1010.11 1010.32 1010.57 1010.91 1011.29 1011.69 1012.13 1012.53 1013.02 1013.43 1013.82 1014.11 1014.41 1014.64 1014.81 1014.96 1015.09 1015.22 1015.34 1015.49 1015.62
1011.19 1011.17 1011.62 1012.61 1013.54 1013.77 1012.25 1010.50 1009.39 1008.12 1007.12 1006.23 1005.36 1005.22 1005.37 1005.51 1005.87 1006.41 1006.76 1006.96 1007.30 1007.49 1008.26 1008.61 1009.15 1009.44 1009.84 1010.04 1010.35 1010.67 1010.92 1011.24 1011.50 1011.90 1012.40 1012.76 1013.17 1013.52 1013.85 1014.17 1014.51 1014.76 1014.92 1015.06 1015.26 1015.47 1015.62 1015.68 1015.76
1011.09 1011.34 1012.57 1013.23 1013.67 1013.21 1011.74 1009.67 1008.65 1008.08 1007.18 1006.43 1005.74 1004.79 1004.93 1005.32 1005.80 1006.03 1006.32 1006.88 1007.54 1008.12 1008.49 1008.89 1009.37 1009.61 1010.00 1010.22 1010.48 1010.82 1011.19 1011.63 1011.87 1012.17 1012.67 1013.03 1013.36 1013.67 1013.97 1014.30 1014.61 1014.84 1015.01 1015.19 1015.39 1015.53 1015.70 1015.84 1015.91
1011.34 1012.29 1013.71 1013.67 1013.35 1011.93 1010.58 1008.97 1008.43 1007.83 1007.02 1006.25 1005.61 1005.38 1005.22 1005.28 1005.36 1005.73 1006.52 1007.20 1007.61 1008.31 1008.69 1008.89 1009.49 1009.73 1010.14 1010.34 1010.57 1010.81 1011.19 1011.70 1012.11 1012.34 1012.69 1013.18 1013.59 1013.94 1014.21 1014.46 1014.70 1014.89 1015.06 1015.22 1015.38 1015.58 1015.76 1015.90 1015.98
1012.04 1013.20 1014.19 1014.19 1012.94 1011.30 1010.02 1008.79 1008.35 1007.71 1007.10 1006.11 1005.67 1005.52 1005.69 1005.90 1005.85 1006.03 1006.76 1007.39 1007.53 1008.39 1008.86 1009.01 1009.41 1009.88 1009.93 1010.41 1010.69 1010.89 1011.21 1011.70 1012.12 1012.46 1012.78 1013.09 1013.52 1013.94 1014.25 1014.51 1014.72 1014.90 1015.06 1015.21 1015.39 1015.52 1015.62 1015.71 1015.84
1012.95 1013.84 1014.71 1014.19 1012.74 1010.84 1009.78 1008.89 1008.37 1007.73 1006.61 1005.82 1005.78 1006.06 1006.07 1006.36 1006.51 1006.68 1006.70 1007.24 1007.84 1008.27 1008.63 1009.14 1009.69 1009.81 1009.95 1010.27 1010.61 1010.98 1011.28 1011.63 1012.01 1012.40 1012.79 1013.14 1013.43 1013.74 1014.12 1014.47 1014.74 1014.94 1015.14 1015.30 1015.44 1015.55 1015.62 1015.69 1015.73
1013.18 1014.34 1014.28 1013.81 1012.56 1010.82 1009.62 1008.71 1008.04 1007.36 1006.26 1005.78 1006.17 1006.39 1006.43 1006.44 1006.51 1007.06 1007.44 1007.80 1008.20 1008.67 1008.89 1009.01 1009.56 1009.98 1010.08 1010.25 1010.60 1010.94 1011.31 1011.62 1011.96 1012.33 1012.63 1013.06 1013.49 1013.85 1014.06 1014.27 1014.54 1014.78 1015.04 1015.25 1015.48 1015.66 1015.75 1015.80 1015.88
1013.19 1014.08 1014.11 1013.57 1012.47 1010.75 1009.47 1008.75 1007.93 1007.33 1006.45 1005.82 1005.94 1006.42 1006.47 1006.34 1006.62 1007.17 1007.79 1008.25 1008.67 1009.00 1009.27 1009.49 1009.61 1009.88 1010.07 1010.21 1010.44 1010.77 1011.09 1011.44 1011.83 1012.23 1012.57 1012.90 1013.28 1013.68 1014.01 1014.26 1014.40 1014.61 1014.84 1015.07 1015.33 1015.55 1015.69 1015.78 1015.82
1012.97 1013.90 1014.05 1013.23 1012.36 1010.98 1009.81 1009.07 1007.77 1007.32 1006.87 1005.99 1006.34 1006.57 1006.09 1006.33 1007.12 1007.55 1008.08 1008.71 1008.99 1009.31 1009.45 1009.60 1009.82 1009.92 1010.03 1010.22 1010.43 1010.79 1011.05 1011.35 1011.74 1012.11 1012.54 1013.03 1013.37 1013.67 1013.93 1014.18 1014.50 1014.69 1014.88 1015.07 1015.24 1015.42 1015.62 1015.68 1015.70
1013.05 1013.49 1013.11 1012.57 1011.68 1010.90 1010.04 1009.31 1008.63 1007.85 1007.08 1006.07 1006.44 1006.43 1006.57 1006.34 1006.97 1007.50 1007.97 1008.40 1008.76 1009.01 1009.34 1009.49 1009.93 1010.18 1010.22 1010.49 1010.77 1011.17 1011.44 1011.72 1012.11 1012.34 1012.56 1012.87 1013.24 1013.63 1013.95 1014.20 1014.51 1014.80 1014.88 1014.95 1015.03 1015.21 1015.38 1015.49 1015.69
1012.88 1012.77 1012.33 1011.92 1011.02 1010.50 1009.89 1009.10 1008.75 1008.21 1007.54 1006.49 1006.53 1007.10 1007.06 1007.23 1007.50 1007.71 1008.03 1007.89 1007.66 1008.33 1008.98 1009.25 1009.64 1009.87 1010.15 1010.50 1010.88 1011.35 1011.79 1012.09 1012.40 1012.67 1012.94 1013.21 1013.49 1013.76 1014.01 1014.21 1014.30 1014.57 1014.81 1015.04 1015.16 1015.27 1015.47 1015.64 1015.89
1012.84 1012.25 1011.96 1011.46 1010.80 1010.39 1010.17 1009.30 1008.74 1008.38 1007.30 1006.37 1006.17 1006.73 1007.09 1007.08 1007.62 1007.63 1007.74 1008.06 1008.24 1008.39 1008.67 1009.22 1009.57 1009.92 1010.29 1010.34 1010.78 1011.18 1011.63 1011.94 1012.27 1012.59 1012.90 1013.18 1013.46 1013.67 1013.91 1014.10 1014.31 1014.55 1014.67 1015.02 1015.34 1015.47 1015.43 1015.57 1015.72
1012.39 1011.74 1011.45 1010.92 1010.54 1010.25 1010.01 1008.44 1008.85 1008.19 1006.92 1006.26 1006.55 1005.91 1007.04 1007.51 1007.26 1007.60 1007.65 1007.90 1008.19 1008.23 1008.34 1008.57 1009.05 1009.56 1009.98 1010.37 1010.73 1011.08 1011.48 1011.64 1011.99 1012.32 1012.65 1013.00 1013.23 1013.39 1013.28 1013.55 1013.90 1014.05 1014.30 1014.28 1014.46 1014.81 1015.09 1015.09 1015.19
1011.15 1010.90 1010.77 1010.67 1010.33 1010.23 1009.98 1009.02 1009.00 1007.38 1006.70 1006.49 1006.36 1006.53 1006.90 1007.39 1007.44 1007.32 1007.25 1007.36 1007.74 1007.71 1007.71 1008.03 1008.45 1009.15 1009.82 1010.23 1010.56 1010.98 1011.25 1011.52 1012.02 1012.21 1012.28 1012.62 1013.01 1013.40 1013.46 1013.55 1013.72 1013.94 1013.94 1014.04 1014.11 1014.11 1014.47 1014.43 1014.44
1010.69 1010.95 1010.60 1009.87 1009.55 1009.78 1009.74 1008.88 1007.25 1007.08 1006.79 1006.20 1005.85 1006.10 1006.49 1006.87 1007.38 1006.79 1006.77 1006.78 1006.99 1007.10 1007.19 1007.60 1008.32 1008.76 1009.36 1010.08 1010.57 1011.00 1011.33 1011.66 1011.76 1011.86 1012.03 1012.35 1012.74 1013.10 1013.42 1013.84 1014.01 1013.78 1013.87 1013.96 1014.18 1014.14 1014.27 1014.44 1014.39
1010.70 1010.69 1010.30 1008.64 1009.07 1009.10 1009.40 1007.95 1006.69 1006.09 1006.61 1006.91 1006.60 1006.30 1006.66 1006.35 1006.65 1006.56 1006.49 1006.63 1006.42 1006.85 1007.11 1007.66 1008.29 1008.94 1009.50 1009.96 1010.50 1010.86 1010.87 1011.06 1011.28 1011.51 1011.75 1011.98 1012.30 1012.72 1012.98 1013.22 1013.24 1013.17 1013.37 1013.60 1013.75 1013.86 1013.96 1014.03 1013.99
1010.45 1009.98 1009.30 1008.15 1007.83 1007.98 1008.07 1007.32 1006.12 1005.44 1006.01 1005.96 1005.65 1005.89 1006.37 1006.72 1006.49 1006.25 1006.52 1006.68 1006.83 1007.15 1007.42 1007.82 1008.20 1008.80 1009.26 1009.68 1009.99 1010.32 1010.54 1010.78 1011.02 1011.28 1011.49 1011.66 1011.85 1012.08 1012.39 1012.57 1012.57 1012.58 1012.92 1013.26 1013.41 1013.44 1013.59 1013.63 1013.35
1009.85 1009.38 1008.55 1008.02 1007.18 1007.30 1007.15 1006.42 1005.36 1005.03 1005.42 1005.03 1005.20 1005.85 1006.00 1006.29 1006.28 1006.16 1006.65 1007.08 1007.21 1007.22 1007.66 1008.05 1008.32 1008.66 1009.04 1009.54 1010.10 1010.40 1010.66 1010.88 1011.05 1011.28 1011.52 1011.57 1011.66 1011.71 1011.92 1012.03 1012.15 1012.16 1012.56 1012.70 1012.85 1012.83 1012.83 1012.88 1012.69
1008.75 1008.65 1008.04 1006.88 1006.23 1006.53 1006.98 1005.88 1005.40 1005.01 1005.62 1005.28 1005.41 1005.86 1005.83 1006.30 1006.20 1006.37 1007.04 1006.99 1007.45 1007.72 1007.87 1007.97 1008.21 1008.67 1009.13 1009.80 1010.42 1010.86 1011.14 1011.20 1011.11 1011.12 1011.04 1011.21 1011.34 1011.50 1011.74 1011.98 1012.11 1012.29 1012.35 1012.14 1012.17 1012.19 1012.30 1012.19 1012.21
1008.58 1008.16 1007.63 1006.43 1005.84 1005.94 1006.42 1006.43 1005.78 1005.25 1004.91 1004.95 1005.12 1005.37 1005.91 1006.38 1006.64 1007.00 1007.18 1007.53 1007.59 1007.81 1008.08 1008.34 1008.57 1008.78 1009.22 1009.54 1010.15 1010.47 1010.93 1011.06 1011.09 1011.30 1011.13 1010.95 1011.02 1011.12 1011.34 1011.68 1011.76 1011.83 1012.01 1012.04 1011.89 1011.92 1011.72 1011.47 1011.64
1007.66 1007.35 1007.12 1006.93 1006.09 1005.98 1006.13 1006.31 1005.74 1005.02 1004.75 1004.89 1005.29 1005.58 1006.04 1006.25 1006.69 1007.16 1007.69 1007.90 1008.14 1008.32 1008.54 1008.75 1008.98 1009.26 1009.47 1009.66 1010.10 1010.59 1010.98 1011.24 1011.40 1011.40 1011.24 1011.13 1011.00 1011.03 1011.11 1011.24 1011.27 1011.30 1011.37 1011.47 1011.42 1011.40 1011.31 1010.95 1010.85
1006.68 1006.21 1006.50 1006.67 1006.82 1007.14 1006.89 1006.97 1005.94 1005.45 1005.19 1005.20 1005.59 1006.07 1006.33 1006.47 1006.84 1007.33 1007.81 1008.13 1008.55 1008.86 1008.80 1008.92 1009.12 1009.27 1009.35 1009.47 1009.99 1010.64 1011.21 1011.80 1011.63 1011.60 1011.26 1011.08 1010.95 1010.87 1010.81 1010.77 1010.86 1010.89 1010.82 1010.84 1010.69 1010.62 1010.51 1010.47 1010.16
1005.76 1005.63 1006.39 1007.05 1007.40 1007.61 1007.49 1007.75 1006.49 1006.17 1005.85 1005.82 1006.12 1006.55 1007.12 1007.41 1007.60 1007.96 1008.38 1008.65 1008.91 1009.06 1009.38 1009.56 1009.78 1009.87 1009.87 1009.96 1010.11 1010.57 1011.06 1011.09 1011.08 1011.14 1011.06 1010.88 1010.64 1010.53 1010.31 1010.26 1010.36 1010.38 1010.24 1010.12 1010.02 1009.91 1009.84 1009.68 1009.47
1005.32 1006.11 1007.27 1008.24 1008.61 1008.84 1008.14 1008.12 1007.27 1006.51 1006.15 1006.54 1006.83 1007.34 1007.74 1008.16 1008.23 1008.61 1008.85 1009.17 1009.54 1009.64 1009.98 1010.39 1010.92 1011.46 1011.32 1011.38 1011.60 1011.82 1011.82 1011.72 1011.75 1011.78 1011.78 1011.59 1011.31 1010.90 1010.40 1009.98 1009.91 1009.71 1009.57 1009.46 1009.40 1009.19 1009.10 1008.88 1008.53
1005.38 1006.42 1008.87 1009.63 1010.13 1009.85 1009.00 1008.66 1007.34 1006.69 1006.33 1006.41 1007.02 1007.77 1008.20 1008.52 1008.82 1009.00 1009.34 1009.73 1010.16 1010.57 1010.88 1011.08 1011.33 1011.81 1011.77 1011.72 1011.87 1011.98 1012.06 1011.95 1011.91 1011.95 1011.99 1011.83 1011.36 1011.00 1010.69 1010.41 1010.16 1009.65 1009.20 1008.88 1008.61 1008.43 1008.26 1008.05 1007.74
1005.43 1006.55 1008.21 1009.85 1010.82 1010.40 1009.51 1008.74 1007.31 1006.75 1006.55 1006.54 1007.23 1007.82 1008.50 1009.01 1009.61 1010.02 1010.30 1010.45 1010.68 1011.05 1011.31 1011.52 1011.74 1011.97 1011.95 1012.09 1012.11 1011.98 1011.89 1012.05 1012.06 1011.90 1011.65 1011.42 1011.11 1010.79 1010.60 1010.22 1009.75 1009.38 1009.02 1008.62 1008.23 1007.74 1007.42 1007.15 1006.83
1005.58 1006.85 1007.86 1009.55 1010.97 1010.92 1010.04 1008.71 1007.49 1007.03 1007.14 1007.25 1007.98 1008.59 1009.27 1009.89 1010.15 1010.55 1010.91 1011.11 1011.40 1011.64 1011.90 1012.04 1012.37 1012.46 1012.28 1012.16 1012.05 1011.97 1011.80 1011.75 1011.66 1011.40 1011.19 1010.90 1010.61 1010.37 1009.90 1009.62 1009.31 1008.86 1008.55 1008.20 1007.82 1007.33 1006.74 1006.24 1005.90
1005.18 1006.51 1008.27 1009.86 1011.46 1011.49 1010.39 1009.24 1008.03 1007.69 1007.79 1008.18 1009.01 1009.55 1009.94 1010.64 1011.37 1011.70 1011.99 1012.17 1012.46 1012.60 1012.66 1012.61 1012.52 1012.37 1012.23 1012.11 1011.94 1011.53 1011.41 1011.31 1011.18 1011.01 1010.77 1010.51 1010.27 1009.94 1009.57 1009.24 1008.82 1008.26 1007.75 1007.38 1007.05 1006.65 1006.08 1005.57 1005.03
1006.14 1007.06 1008.53 1009.89 1011.07 1011.37 1010.93 1009.30 1007.75 1007.47 1007.91 1008.56 1009.07 1009.96 1010.62 1011.22 1011.95 1012.26 1012.54 1012.59 1012.61 1012.63 1012.60 1012.50 1012.45 1012.44 1012.29 1012.13 1011.84 1011.61 1011.34 1011.23 1011.04 1010.81 1010.51 1010.25 1009.87 1009.54 1009.17 1008.84 1008.36 1007.70 1007.15 1006.73 1006.18 1005.72 1005.30 1004.75 1004.22
1006.80 1007.47 1008.56 1010.01 1011.41 1011.62 1011.10 1009.28 1007.80 1007.55 1008.18 1008.82 1009.78 1010.38 1011.01 1011.50 1011.91 1012.41 1012.71 1012.87 1012.98 1012.99 1012.93 1012.90 1012.71 1012.48 1012.27 1011.89 1011.64 1011.39 1011.22 1010.85 1010.41 1010.03 1009.61 1009.24 1009.00 1008.82 1008.66 1008.33 1007.72 1007.16 1006.66 1006.06 1005.33 1004.65 1004.13 1003.87 1003.33
Thickness
5759 5762 5766 5760 5726 5719 5722 5747 5773 5775 5785 5807 5811 5807 5805 5815 5813 5794 5838 5841 5844 5839 5835 5830 5827 5826 5824 5822 5821 5820 5818 5815 5812 5809 5807 5804 5800 5797 5795 5793 5791 5789 5788 5788 5786 5785 5784 5783 5781
5755 5759 5753 5734 5706 5699 5721 5757 5764 5774 5789 5802 5810 5813 5809 5806 5825 5824 5828 5837 5838 5838 5831 5830 5826 5825 5822 5821 5819 5817 5815 5813 5811 5808 5804 5802 5799 5797 5795 5792 5790 5788 5787 5785 5784 5782 5781 5781 5780
5749 5750 5729 5714 5695 5704 5724 5764 5769 5775 5786 5793 5797 5819 5815 5810 5824 5827 5835 5836 5833 5830 5828 5826 5823 5823 5820 5819 5817 5815 5812 5809 5807 5806 5802 5799 5797 5795 5793 5791 5788 5786 5785 5784 5782 5781 5780 5779 5778
5738 5727 5713 5694 5703 5728 5747 5768 5769 5769 5779 5789 5798 5795 5814 5827 5828 5833 5832 5830 5828 5825 5824 5823 5820 5820 5818 5817 5815 5814 5812 5808 5804 5804 5801 5798 5794 5792 5790 5788 5786 5785 5784 5783 5782 5780 5779 5778 5777
5725 5707 5685 5686 5704 5735 5754 5763 5763 5762 5769 5778 5793 5788 5798 5815 5826 5829 5825 5825 5825 5821 5819 5819 5818 5815 5817 5814 5813 5812 5810 5807 5803 5801 5799 5797 5794 5791 5788 5786 5785 5784 5782 5781 5780 5780 5779 5779 5777
5699 5696 5672 5679 5703 5738 5751 5756 5758 5760 5769 5782 5783 5784 5792 5809 5811 5817 5823 5822 5820 5818 5817 5814 5812 5813 5814 5813 5811 5809 5807 5805 5802 5800 5797 5795 5793 5791 5788 5785 5783 5782 5780 5778 5778 5777 5777 5776 5776
5689 5677 5674 5683 5700 5724 5740 5754 5751 5755 5765 5772 5780 5770 5785 5796 5807 5810 5811 5815 5814 5811 5811 5811 5809 5807 5808 5809 5808 5807 5804 5803 5800 5798 5796 5793 5790 5787 5786 5785 5783 5781 5779 5776 5774 5772 5772 5772 5771
5684 5678 5672 5678 5692 5710 5740 5746 5748 5751 5755 5782 5783 5763 5769 5792 5802 5802 5801 5803 5804 5804 5804 5804 5804 5805 5806 5806 5806 5805 5803 5801 5798 5795 5793 5791 5788 5785 5783 5781 5781 5779 5777 5775 5772 5770 5768 5768 5768
5684 5663 5655 5672 5684 5703 5727 5729 5746 5752 5752 5767 5768 5769 5782 5789 5790 5791 5790 5788 5793 5796 5798 5799 5799 5800 5800 5801 5801 5799 5798 5796 5794 5792 5789 5785 5783 5781 5779 5778 5775 5774 5773 5771 5770 5768 5766 5765 5765
5667 5650 5662 5677 5690 5696 5712 5721 5727 5729 5734 5754 5754 5764 5774 5784 5782 5782 5783 5782 5786 5789 5791 5794 5792 5793 5794 5793 5793 5791 5789 5788 5785 5784 5784 5782 5780 5777 5775 5773 5770 5768 5767 5767 5766 5765 5763 5761 5760
5661 5654 5667 5673 5684 5692 5700 5712 5725 5715 5720 5739 5740 5744 5758 5764 5768 5771 5777 5782 5788 5789 5788 5789 5789 5789 5789 5788 5786 5784 5781 5779 5778 5776 5774 5773 5772 5770 5768 5767 5767 5765 5762 5760 5758 5758 5757 5756 5753
5647 5654 5659 5661 5669 5677 5679 5702 5706 5705 5720 5745 5751 5750 5749 5751 5755 5763 5770 5774 5778 5782 5783 5783 5784 5783 5781 5782 5779 5778 5775 5773 5771 5769 5768 5767 5765 5764 5762 5761 5760 5758 5758 5754 5752 5751 5752 5751 5750
5636 5642 5645 5652 5655 5656 5668 5694 5688 5694 5721 5735 5734 5746 5739 5738 5751 5759 5767 5772 5773 5776 5780 5781 5780 5778 5776 5775 5774 5772 5770 5768 5766 5764 5762 5759 5759 5759 5759 5757 5755 5754 5752 5752 5751 5749 5746 5746 5746
5636 5633 5635 5636 5638 5638 5645 5664 5670 5695 5712 5713 5729 5733 5731 5731 5738 5748 5757 5765 5766 5772 5776 5778 5777 5775 5771 5769 5767 5764 5762 5760 5757 5757 5756 5755 5753 5749 5749 5750 5749 5747 5746 5744 5743 5744 5742 5743 5744
5632 5622 5623 5628 5638 5630 5635 5637 5666 5689 5696 5705 5720 5731 5729 5732 5731 5741 5752 5758 5763 5768 5772 5773 5770 5771 5768 5762 5758 5756 5753 5751 5752 5752 5751 5749 5747 5743 5741 5739 5738 5737 5737 5737 5735 5736 5735 5734 5736
5622 5617 5607 5633 5628 5629 5627 5627 5666 5685 5685 5687 5697 5715 5710 5722 5722 5737 5747 5750 5760 5760 5762 5762 5763 5759 5756 5754 5752 5749 5749 5749 5749 5747 5745 5743 5741 5738 5736 5736 5736 5735 5733 5732 5731 5731 5730 5730 5730
5615 5612 5614 5628 5637 5637 5631 5631 5664 5686 5683 5687 5703 5711 5711 5715 5725 5740 5743 5745 5749 5751 5752 5753 5753 5750 5749 5747 5747 5747 5746 5745 5743 5740 5736 5734 5732 5731 5728 5729 5731 5730 5728 5725 5724 5723 5722 5721 5725
5616 5618 5630 5627 5646 5638 5634 5644 5677 5695 5681 5694 5700 5703 5708 5709 5719 5731 5732 5733 5737 5743 5743 5744 5743 5742 5741 5739 5736 5736 5735 5734 5731 5729 5726 5725 5724 5723 5722 5722 5721 5720 5718 5718 5717 5718 5719 5718 5721
5634 5630 5632 5644 5657 5645 5636 5658 5672 5683 5674 5685 5686 5690 5698 5699 5716 5720 5719 5728 5729 5729 5731 5733 5733 5734 5733 5729 5723 5719 5717 5718 5719 5718 5718 5716 5716 5715 5714 5713 5712 5709 5707 5712 5713 5712 5710 5711 5712
5624 5627 5627 5646 5661 5656 5645 5646 5660 5672 5684 5687 5694 5696 5697 5699 5707 5711 5714 5717 5720 5720 5719 5720 5721 5722 5719 5717 5713 5711 5708 5707 5708 5707 5709 5710 5710 5709 5706 5702 5700 5700 5699 5699 5701 5701 5703 5705 5705
5626 5630 5637 5640 5657 5658 5656 5647 5654 5675 5689 5692 5695 5696 5697 5701 5702 5704 5705 5705 5706 5708 5709 5711 5711 5709 5708 5707 5705 5700 5697 5696 5695 5696 5696 5697 5697 5696 5695 5695 5696 5696 5695 5693 5693 5692 5691 5692 5697
5623 5646 5648 5644 5640 5627 5647 5625 5658 5666 5676 5684 5688 5685 5692 5698 5701 5700 5698 5699 5698 5698 5701 5702 5701 5700 5700 5700 5697 5692 5687 5683 5683 5683 5684 5685 5685 5686 5686 5685 5686 5686 5687 5686 5688 5688 5687 5686 5688
5636 5652 5650 5644 5630 5633 5637 5627 5645 5659 5671 5679 5682 5683 5683 5685 5688 5689 5688 5689 5690 5689 5688 5687 5686 5686 5688 5688 5688 5685 5681 5680 5680 5678 5678 5676 5677 5677 5675 5673 5672 5671 5673 5675 5677 5678 5678 5679 5682
5650 5639 5627 5617 5615 5610 5635 5626 5631 5652 5670 5666 5670 5669 5672 5673 5677 5678 5678 5678 5677 5678 5676 5674 5670 5666 5668 5668 5666 5663 5662 5662 5661 5660 5659 5659 5660 5661 5661 5664 5665 5664 5663 5664 5664 5666 5666 5667 5671
5635 5623 5591 5597 5595 5600 5620 5619 5633 5655 5664 5666 5660 5660 5662 5664 5664 5667 5667 5665 5663 5661 5661 5662 5659 5653 5654 5654 5653 5651 5650 5650 5649 5647 5645 5644 5647 5647 5647 5648 5648 5651 5652 5654 5656 5657 5657 5659 5662
5632 5623 5591 5595 5585 5601 5616 5610 5631 5651 5655 5661 5659 5656 5654 5654 5650 5649 5651 5652 5651 5649 5647 5645 5645 5644 5644 5643 5641 5640 5638 5635 5634 5633 5634 5635 5635 5634 5633 5635 5638 5639 5642 5645 5646 5650 5651 5651 5653
5623 5611 5619 5592 5591 5584 5595 5618 5635 5645 5643 5647 5644 5644 5641 5635 5638 5638 5635 5633 5634 5635 5634 5634 5632 5631 5632 5632 5630 5628 5626 5626 5625 5624 5624 5623 5624 5624 5627 5628 5629 5630 5631 5632 5633 5636 5641 5645 5647
5628 5623 5597 5585 5578 5581 5587 5605 5611 5631 5632 5632 5626 5625 5629 5626 5619 5617 5617 5616 5616 5616 5617 5619 5621 5621 5620 5619 5618 5620 5618 5617 5615 5613 5612 5612 5612 5613 5615 5615 5617 5620 5622 5623 5624 5626 5628 5632 5636
5611 5605 5594 5588 5573 5564 5562 5587 5621 5626 5625 5620 5625 5620 5613 5608 5606 5607 5607 5608 5609 5608 5610 5610 5609 5608 5608 5608 5607 5606 5607 5603 5602 5600 5601 5601 5602 5603 5604 5603 5606 5610 5612 5612 5613 5615 5618 5622 5626
5606 5602 5593 5574 5579 5569 5566 5582 5621 5622 5620 5613 5605 5604 5599 5601 5599 5598 5597 5597 5596 5597 5596 5594 5595 5596 5594 5595 5596 5596 5594 5596 5597 5599 5600 5600 5599 5597 5595 5596 5599 5600 5600 5602 5605 5609 5609 5611 5617